User: anonymous   Login
Location: ??
(35.5052°N, 139.7262°E)
Time: 18:32:21
(UTC+00:00)
Language:

Cosmos 2082 Rocket - Orbit

View from above orbital plane
View from above orbital plane
View from above satellite
View from above satellite

Ground track
Ground track

The orbit data is extracted from the following two-line orbital elements,

1 20625U 90046B   21262.90335311 -.00000265  00000-0 -11294-3 0  9997
2 20625  70.9979 123.8208 0016794 265.4572  94.4632 14.14673166617595
Epoch (UTC): 19 September 2021 21:40:49
Eccentricity: 0.0016794
inclination: 70.9979°
perigee height: 831 km
apogee height: 855 km
right ascension of ascending node: 123.8208°
argument of perigee: 265.4572°
revolutions per day: 14.14673166
mean anomaly at epoch: 94.4632°
orbit number at epoch: 61759

The dashed part of the orbit path shows where the satellite is in the earth's shadow,  

DLR